Regional Weather Roundup
Issued by NWS Newport/Morehead, NC

Current Version | Previous Version | Graphics & Text | Print | Product List | Glossary Off
Versions: 1 2 3 4 5 6 7 8 9 10 11 12 13 14 15 16 17 18 19 20 21 22 23 24 25 26 27 28 29 30 31 32 33 34 35 36 37 38 39 40 41 42 43 44 45 46 47 48 49 50

000
ASUS42 KMHX 232022
RWRMHX
WEATHER ROUNDUP FOR EASTERN NORTH CAROLINA
NATIONAL WEATHER SERVICE NEWPORT/MOREHEAD CITY NC
400 PM EDT TUE SEP 23 2014

NOTE: "FAIR" INDICATES FEW OR NO CLOUDS BELOW 12,000 FEET
WITH NO SIGNIFICANT WEATHER AND/OR OBSTRUCTIONS TO VISIBILITY

NCZ015>017-031-032-045>047-102-103-232100-
NORTH COAST

CITY           SKY/WX    TMP DP  RH WIND       PRES   REMARKS
EDENTON        CLOUDY    64  56  75 N10       30.26S
ELIZABETH CITY CLOUDY    65  56  72 N13       30.26F
KITTY HAWK     CLOUDY    67  58  73 N10G18    30.24R
MANTEO         LGT RAIN  65  59  81 NE16      30.24S

$$

NCZ045>047-081-094-103-104-232100-
CENTRAL COAST

CITY           SKY/WX    TMP DP  RH WIND       PRES   REMARKS
FRISCO         CLOUDY    68  61  78 NE14G24   30.19F
SWANQUARTER      N/A     64 N/A N/A NE6G14    30.18S

$$

NCZ095-097-098-100-101-232100-
SOUTHERN COAST

CITY           SKY/WX    TMP DP  RH WIND       PRES   REMARKS
BEAUFORT       RAIN      66  59  78 N18G28    30.18S
CEDAR ISLAND     N/A     68 N/A N/A VRB26G35  30.24S
JACKSONVILLE   LGT RAIN  62  59  90 N13       30.20S
NEWPORT        NOT AVBL
PINEY ISLAND   CLOUDY    69  58  67 N21G30    30.20S
WILMINGTON     CLOUDY    64  59  83 N12       30.19S


$$

NCZ011>013-027>030-043-044-078>080-089-090>093-098-232100-
COASTAL PLAIN

CITY           SKY/WX    TMP DP  RH WIND       PRES   REMARKS
AHOSKIE        CLOUDY    63  52  66 N10       30.29S
CLINTON        DRIZZLE   64  57  80 N5        30.25R
ELIZABETHTOWN  LGT RAIN  64  58  83 CALM      30.21F
GOLDSBORO      CLOUDY    63  58  86 N7G18     30.24F
GREENVILLE     CLOUDY    64  55  72 N9        30.26F
HAVELOCK       LGT RAIN  65  61  87 NE14      30.22S
KENANSVILLE    LGT RAIN  63  55  77 N7        30.25S
KINSTON        DRIZZLE   64  55  72 N10       30.25S
NEW BERN       LGT RAIN  65  59  81 N8        30.23F
RICHLANDS      CLOUDY    63  55  77 N12       30.22S
ROANOKE RAPIDS NOT AVBL
ROCKY MOUNT    CLOUDY    64  52  64 N12       30.28F
WASHINGTON     CLOUDY    61  57  87 N8        30.25S
WHITEVILLE     DRIZZLE   62  57  84 N5        30.20F

$$

AMZ130-135-150-152-154-156-158-170-250-252-270-ANZ085-086-088-633-658-670-232100-
MARINE OBSERVATIONS

STATION/POSITION TIME  TEMP    WIND        PRES    WAVE   SWELL
                       AIR SEA DIR/SP/G            HT/PER HT/PER
                 (UTC) (F)     (DEG/KT/KT) (MB)    (FT/S) (FT/S)
CHESAPEAKE LIGHT 2000   64      40/ 15/ 18 1026.2
BUOY 44014       2000   68 75   30/ 16/ 19 1023.9    4/ 5   2/ 7
DUCK             2000           30/ 19/ 23   N/A
2E DUCK          2000                        N/A     4/ 5
OREGON INLET     2000           20/ 15/ 19   N/A
BUOY 44095       2000      74                N/A     5/ 6
20E OREGON INLET NOT AVBL
HATTERAS CG      NOT AVBL
DIAMOND BUOY     2000   73      10/ 27/ 31 1020.4    7/ 6
CAPE LOOKOUT     2000   65      20/ 19/ 22 1021.4
BEAUFORT LAB     2000   67 74   20/ 15/ 22 1021.6
30 SE NEW RIVER  2000   71 82   30/ 27/ 33 1019.6    7/ 6
5 SE WRIGHTSVILL 2000   64 78   30/ 21/ 25   N/A
BUOY 41002       1856   78 80  100/ 12/ 16 1017.3    3/ 8   2/ 8
BUOY 41004       2000   71 81  360/ 25/ 29 1018.1    8/ 7   2/11

$$


USA.gov is the U.S. government's official web portal to all federal, state and local government web resources and services.